Wind_Speed
15 17 18 14 13 18 23 21 21 21 16 14 10 6 14 9 6 14 23 23 22 23 23 19 20 20 19 18 16 14 13 12 10 9 8 8 9 9 10 10 11 13 12 12 12 13 12 12 13
20 18 16 11 15 20 21 18 15 13 17 12 15 13 9 13 9 28 26 26 24 24 21 20 21 19 17 16 14 11 10 9 8 8 7 8 10 12 12 12 12 13 13 13 13 13 14 14 15
21 16 11 8 15 20 19 15 16 17 16 12 10 13 7 22 24 24 24 25 24 23 20 20 20 17 15 13 12 10 9 9 8 9 9 10 11 12 13 14 14 15 15 15 16 17 18 19 20
18 17 12 8 20 18 16 15 15 16 13 11 10 10 20 21 20 22 22 21 22 22 20 20 18 16 13 11 10 11 11 10 10 11 11 12 12 13 14 15 17 18 18 19 21 23 24 25 26
9 11 14 19 18 16 15 14 13 13 11 11 9 15 20 19 23 22 22 21 21 20 19 19 16 14 11 10 11 11 11 12 12 12 13 14 14 15 16 18 19 21 24 25 27 28 29 29 29
4 7 14 20 17 14 13 13 12 10 10 8 13 17 20 20 22 22 23 23 15 18 18 17 14 12 10 10 11 11 13 12 12 13 14 15 16 18 19 20 23 26 27 28 28 29 28 29 27
10 4 16 16 16 13 11 11 11 11 10 13 18 19 22 22 22 21 21 16 18 16 16 15 13 10 9 10 11 11 12 12 12 13 15 16 17 19 22 24 26 27 27 27 27 26 25 25 24
8 10 13 15 13 12 10 11 12 12 14 15 17 15 26 24 23 21 19 17 16 15 16 15 15 8 9 10 11 11 12 13 13 13 16 18 17 21 26 26 25 26 26 25 24 23 22 22 22
9 7 13 12 11 12 13 13 12 13 17 13 7 16 24 24 22 20 17 17 18 17 14 13 16 12 9 10 11 12 13 13 13 16 18 23 18 19 22 24 23 23 23 22 21 21 20 21 20
7 14 12 11 13 14 12 11 17 14 14 16 20 19 19 20 19 17 16 15 15 14 14 15 18 15 10 2 9 13 14 9 12 15 16 14 20 23 20 21 20 20 19 18 18 18 16 20 17
12 15 11 11 12 13 13 13 14 12 13 14 19 15 17 17 13 12 12 15 15 15 13 18 14 16 8 8 10 10 9 13 12 10 18 20 18 20 12 17 16 15 18 13 13 12 16 13 12
14 11 12 13 12 12 11 16 14 7 12 14 14 12 15 17 15 13 13 11 19 17 16 18 19 17 15 10 10 12 9 10 8 12 16 16 9 13 16 13 11 12 8 13 13 5 12 10 9
14 11 12 13 13 11 14 14 7 13 14 18 15 15 15 14 13 12 18 20 17 20 19 20 20 16 12 9 10 12 11 12 11 11 12 15 8 11 10 13 9 11 8 5 7 7 8 14 5
12 13 12 13 10 11 11 10 6 14 16 18 16 16 15 13 12 12 11 13 19 22 23 19 20 15 12 9 9 10 12 11 12 8 10 8 11 14 9 7 5 4 10 9 7 7 6 10 2
12 13 13 11 12 9 10 10 10 16 17 17 15 14 14 14 12 12 11 10 17 24 21 23 21 17 12 8 8 9 10 6 7 8 10 9 10 16 15 7 8 13 13 9 7 5 3 2 3
17 14 18 14 10 9 12 11 12 16 17 16 14 13 12 12 12 10 9 12 16 22 24 24 23 17 14 10 8 7 8 8 6 6 6 8 10 14 15 4 7 17 14 8 12 7 5 6 3
14 9 16 13 10 10 8 12 13 16 15 15 13 12 12 12 11 10 10 11 16 21 25 26 25 22 16 12 9 7 4 3 4 4 5 6 8 10 12 11 14 16 17 16 15 14 13 10 6
2 13 8 12 14 9 9 9 15 17 14 14 13 12 12 12 11 10 10 11 15 18 21 25 22 21 17 15 10 7 5 5 4 5 5 9 8 10 12 13 14 15 19 20 24 20 18 16 13
1 5 5 12 11 14 12 13 15 17 16 15 14 13 13 12 12 11 11 11 14 17 20 21 20 20 18 14 11 9 4 3 5 9 9 10 9 8 10 13 14 16 19 27 24 23 23 21 19
5 5 5 5 11 15 16 17 15 16 15 15 15 13 14 15 15 12 12 12 10 13 16 19 21 19 17 15 13 12 12 11 11 14 8 10 12 12 11 12 13 17 19 22 25 27 27 27 26
9 10 6 4 10 11 13 16 18 16 14 14 15 15 15 16 18 13 14 13 13 12 13 15 16 15 15 15 14 12 12 13 10 9 14 14 19 17 15 14 14 15 16 18 23 25 29 30 31
16 12 6 7 12 3 7 4 2 18 16 14 16 16 17 16 16 16 14 14 14 14 13 14 14 14 14 14 12 13 11 12 12 16 15 14 18 19 19 19 19 18 17 19 20 22 26 28 31
1 8 10 11 14 14 9 17 6 29 17 16 14 16 17 17 16 18 15 15 15 16 13 16 17 16 15 14 14 14 12 13 15 20 9 16 18 15 16 19 20 20 21 22 22 22 24 26 28
7 6 9 10 14 21 12 14 12 15 17 16 14 16 18 19 19 17 16 18 17 16 18 14 20 20 21 20 17 16 16 15 14 18 9 13 12 11 5 20 20 21 22 23 24 25 26 26 27
13 15 14 13 13 13 9 8 12 16 13 12 12 15 18 21 19 20 21 21 20 26 22 23 20 20 20 20 21 16 17 16 14 15 14 14 14 16 17 19 22 18 20 21 23 24 26 27 29
21 21 22 12 12 10 10 11 12 11 12 12 13 14 17 16 21 20 23 18 24 27 26 29 28 21 20 23 25 20 18 16 16 16 18 17 18 18 19 18 18 19 19 20 20 22 24 25 27
17 24 22 22 21 15 14 8 6 9 5 8 6 11 16 21 21 26 28 31 30 35 26 30 25 25 25 27 25 24 22 16 11 16 20 19 16 15 14 14 15 17 20 23 23 25 25 27 27
24 12 20 19 16 17 19 14 14 15 9 8 12 17 26 31 35 32 38 40 37 31 28 27 25 26 29 30 28 33 30 18 18 17 13 15 14 13 13 14 14 15 16 17 20 23 25 27 26
16 25 23 22 20 11 10 3 9 12 11 11 17 25 37 40 40 37 36 39 31 30 25 24 22 17 15 12 12 13 12 12 12 14 15 16 17 21 21 21 22 22 23 25 27 27 28 30 27
15 13 19 29 21 23 20 3 8 10 10 12 13 20 30 35 37 34 32 36 24 21 23 23 23 23 19 16 14 11 13 14 18 21 23 24 26 29 31 31 32 32 32 34 35 37 36 36 36
Wind_Direction
89 104 104 74 78 100 99 107 113 114 110 112 105 88 103 85 85 137 140 137 133 132 131 122 117 115 114 113 109 105 100 90 87 85 83 86 92 99 99 101 97 99 98 99 100 99 99 98 92
98 106 88 90 117 101 111 114 110 121 117 115 104 92 104 106 121 133 138 138 138 138 132 127 123 122 119 117 111 103 95 89 88 84 84 98 102 103 104 103 101 98 99 100 101 97 92 91 92
105 95 94 91 104 110 121 120 113 121 116 122 99 125 100 123 131 133 136 133 134 135 131 129 127 127 121 115 107 97 89 89 87 90 94 100 102 104 104 103 99 100 101 100 100 98 95 91 88
109 70 48 105 102 110 120 128 130 126 120 114 110 97 120 130 132 137 137 131 140 137 136 136 135 128 121 111 99 97 91 92 96 100 100 100 102 102 102 104 105 106 104 105 102 96 92 91 91
101 70 102 97 102 108 114 123 130 130 129 124 111 121 146 140 140 136 131 139 139 137 138 137 136 129 119 99 92 90 89 96 99 97 97 102 103 105 110 111 110 109 108 105 100 97 96 94 94
132 83 128 109 109 111 113 123 131 134 140 145 147 143 151 144 141 138 133 122 123 147 141 139 138 126 112 87 90 89 93 98 97 96 100 104 108 113 114 113 113 111 109 105 103 101 99 96 94
110 200 109 113 118 114 118 116 129 135 128 130 146 144 156 151 151 147 137 134 144 144 145 144 134 124 104 85 89 90 97 96 98 102 106 108 112 115 116 116 114 113 110 108 105 101 97 95 92
65 94 119 115 121 117 115 135 124 128 122 130 141 156 160 161 159 156 149 148 146 151 152 151 140 147 110 91 94 103 101 98 104 111 112 110 112 117 122 118 117 116 113 111 106 101 96 92 89
101 103 99 105 122 129 121 127 134 137 120 128 132 163 159 161 161 161 160 157 154 156 156 166 143 159 104 101 107 111 101 98 109 118 118 114 97 111 124 119 121 119 116 112 107 102 99 93 86
32 106 101 94 118 122 122 126 127 126 128 123 129 151 161 162 160 164 164 167 161 158 157 164 156 157 117 204 116 120 114 104 107 121 98 116 130 129 126 125 124 120 115 110 107 107 108 87 67
53 100 110 108 117 119 118 124 126 126 136 143 149 156 162 156 154 162 162 183 174 166 174 170 163 156 132 159 130 115 119 118 101 106 128 129 131 113 111 134 129 116 129 99 96 115 75 115 113
119 108 109 114 113 116 119 120 130 129 150 158 155 159 158 155 160 167 170 206 181 178 178 181 172 158 177 139 122 148 149 133 68 118 130 121 117 129 144 134 127 112 118 122 120 100 106 103 81
98 113 114 123 115 118 114 131 120 129 145 148 157 156 156 156 167 175 190 198 190 182 196 186 181 175 150 146 138 141 162 111 175 129 154 142 164 141 140 145 149 140 124 121 120 108 105 75 21
138 131 135 121 130 118 122 99 102 138 146 148 149 152 155 169 166 189 183 198 187 185 199 184 177 170 162 143 136 147 139 171 123 140 150 146 161 167 150 138 157 181 172 161 150 145 123 97 64
134 140 139 141 135 136 124 113 110 143 152 149 149 150 159 164 169 169 174 206 183 179 194 183 177 174 172 151 133 142 142 137 176 172 163 165 177 177 178 204 164 209 176 185 191 172 47 139 86
176 166 154 152 136 164 148 125 129 149 152 150 151 154 153 158 160 167 196 167 179 173 189 181 178 177 178 161 146 138 129 150 159 187 191 179 173 181 194 185 224 197 197 206 214 227 204 255 201
173 188 140 143 150 160 176 140 147 154 156 160 161 160 158 160 165 166 159 160 172 178 186 180 182 184 178 176 165 151 144 163 169 182 200 208 201 196 207 216 226 204 216 221 224 235 225 241 274
314 180 136 145 165 159 159 147 159 162 163 170 169 168 170 173 179 162 147 162 169 175 180 181 182 187 184 178 182 195 205 211 213 257 230 229 208 210 210 221 232 228 231 232 230 230 239 247 263
187 154 128 131 164 174 167 159 167 167 173 175 176 173 175 177 184 176 166 164 160 172 180 184 189 185 188 198 212 220 209 246 227 278 243 264 254 236 226 230 235 227 234 232 238 241 246 251 261
232 216 179 168 195 202 174 157 166 169 178 186 178 181 177 179 184 199 184 182 174 173 180 184 185 192 203 214 226 221 211 229 222 235 253 256 261 267 266 261 257 237 239 244 242 242 246 253 261
236 238 217 205 220 220 268 156 165 168 174 187 184 186 182 186 189 211 199 194 191 199 180 186 196 206 213 221 221 226 238 232 243 243 254 260 251 256 261 263 264 268 259 257 252 252 253 255 259
264 202 236 184 224 239 231 113 192 173 179 186 187 191 183 192 194 196 211 206 204 212 211 197 200 206 211 218 227 221 236 239 220 235 215 222 246 256 255 254 254 254 259 265 267 264 259 261 263
293 211 213 230 218 232 232 236 141 188 179 193 195 197 193 191 202 202 207 214 207 216 230 232 214 214 221 221 224 226 239 230 234 234 235 247 259 263 270 266 263 267 264 263 263 266 269 268 268
237 209 217 239 259 235 217 242 176 180 191 193 204 209 196 198 198 205 211 219 222 205 204 231 239 229 225 224 221 225 236 238 247 268 263 270 269 262 255 283 266 263 262 264 267 270 269 270 272
220 218 221 222 227 243 215 204 124 164 160 169 199 219 216 203 198 195 192 196 212 221 216 215 233 227 223 224 220 233 247 253 257 265 267 266 266 261 245 246 269 274 271 272 274 275 276 276 275
229 235 246 245 243 246 155 223 156 176 234 230 221 207 219 210 205 212 214 215 228 224 219 221 235 229 229 227 223 232 241 244 259 267 262 267 266 260 260 266 270 274 279 283 284 287 288 287 282
224 230 246 288 282 277 245 139 145 172 192 277 248 222 201 207 199 194 196 192 205 217 230 232 245 241 238 243 245 254 248 264 275 276 273 273 288 282 285 290 278 282 280 282 283 291 294 287 287
234 246 239 240 262 273 277 248 165 170 171 193 156 158 192 198 206 201 212 219 221 225 239 243 240 245 249 256 261 241 252 272 261 269 282 275 274 282 284 286 288 292 293 289 287 290 292 292 292
224 242 242 269 277 291 261 117 106 161 174 251 215 204 199 203 213 216 218 233 232 235 236 239 240 248 247 233 188 206 212 237 254 266 266 283 269 282 287 287 284 286 289 290 290 290 291 291 291
236 237 229 232 243 254 268 289 148 150 174 260 246 211 212 209 217 212 211 237 240 228 231 237 242 249 262 249 237 229 238 251 267 273 277 277 281 286 290 287 287 287 285 285 287 287 287 288 288
Height
3162 3163 3162 3162 3168 3167 3168 3172 3171 3175 3177 3179 3180 3180 3181 3180 3182 3186 3187 3189 3192 3194 3195 3196 3197 3198 3199 3199 3200 3201 3201 3201 3201 3202 3201 3201 3201 3201 3201 3201 3201 3201 3201 3202 3201 3201 3201 3201 3201
3162 3164 3165 3164 3169 3169 3171 3175 3176 3177 3179 3181 3183 3184 3182 3183 3183 3184 3188 3191 3194 3196 3198 3199 3200 3201 3202 3202 3203 3203 3204 3204 3204 3204 3204 3204 3204 3203 3204 3204 3204 3204 3205 3205 3205 3205 3205 3204 3204
3166 3167 3166 3169 3168 3171 3175 3177 3179 3181 3182 3184 3183 3184 3185 3185 3187 3188 3191 3193 3196 3198 3200 3201 3203 3204 3205 3205 3206 3206 3207 3207 3207 3207 3207 3206 3206 3206 3207 3207 3208 3208 3208 3208 3208 3208 3208 3208 3208
3168 3169 3170 3172 3173 3175 3177 3179 3181 3183 3185 3185 3186 3184 3187 3189 3190 3192 3194 3198 3198 3200 3202 3204 3205 3207 3208 3208 3208 3208 3208 3209 3209 3209 3209 3209 3209 3209 3209 3210 3211 3211 3212 3212 3212 3212 3212 3212 3213
3170 3167 3174 3174 3176 3178 3180 3182 3183 3185 3186 3188 3188 3187 3189 3190 3192 3195 3197 3199 3202 3203 3205 3206 3208 3209 3210 3210 3210 3210 3211 3211 3212 3212 3212 3211 3212 3212 3212 3213 3214 3215 3216 3216 3216 3216 3217 3217 3218
3171 3173 3174 3177 3179 3181 3183 3184 3185 3186 3188 3187 3188 3188 3192 3194 3196 3198 3200 3203 3206 3206 3208 3210 3211 3212 3212 3212 3212 3212 3213 3214 3214 3215 3215 3215 3215 3216 3217 3217 3218 3219 3220 3221 3221 3222 3223 3222 3223
3152 3173 3177 3178 3181 3183 3184 3186 3187 3188 3189 3189 3189 3190 3193 3196 3199 3201 3202 3205 3208 3209 3212 3213 3214 3215 3215 3215 3215 3215 3216 3216 3217 3218 3218 3219 3219 3220 3221 3223 3223 3225 3225 3226 3227 3227 3228 3228 3229
3173 3178 3179 3181 3182 3186 3187 3187 3189 3190 3189 3191 3191 3191 3193 3195 3199 3202 3204 3208 3210 3211 3213 3215 3216 3217 3216 3218 3219 3219 3220 3219 3220 3221 3222 3222 3224 3225 3226 3227 3229 3230 3230 3231 3232 3232 3233 3233 3233
3177 3178 3181 3182 3184 3187 3188 3188 3189 3189 3190 3194 3195 3193 3195 3197 3200 3203 3206 3209 3212 3214 3215 3216 3219 3218 3220 3220 3221 3222 3222 3223 3224 3224 3226 3226 3230 3231 3231 3231 3233 3234 3235 3236 3236 3237 3237 3237 3238
3179 3182 3184 3185 3187 3188 3190 3190 3190 3193 3194 3196 3197 3196 3196 3199 3202 3205 3208 3211 3214 3215 3216 3217 3219 3221 3223 3224 3224 3224 3225 3228 3227 3227 3229 3232 3231 3232 3236 3237 3238 3239 3240 3241 3241 3241 3241 3241 3241
3182 3184 3187 3188 3189 3191 3191 3192 3194 3196 3198 3198 3197 3196 3198 3202 3205 3208 3210 3213 3216 3217 3218 3219 3221 3223 3228 3226 3226 3227 3229 3228 3230 3231 3230 3231 3235 3238 3241 3240 3241 3243 3242 3243 3243 3244 3244 3245 3248
3186 3187 3189 3191 3192 3193 3193 3194 3196 3198 3199 3198 3197 3199 3201 3205 3210 3212 3215 3212 3214 3217 3218 3219 3221 3224 3226 3226 3229 3230 3232 3233 3233 3233 3234 3237 3241 3240 3241 3244 3244 3245 3245 3245 3247 3247 3245 3246 3247
3187 3189 3191 3193 3194 3194 3195 3196 3196 3198 3198 3197 3198 3200 3203 3208 3210 3212 3212 3212 3214 3216 3218 3219 3222 3224 3226 3227 3228 3230 3231 3235 3235 3235 3237 3238 3241 3240 3244 3242 3246 3246 3247 3247 3247 3247 3248 3249 3251
3187 3190 3192 3194 3195 3196 3196 3196 3196 3198 3199 3199 3200 3202 3206 3209 3211 3211 3210 3210 3212 3215 3216 3220 3223 3225 3228 3229 3230 3231 3233 3234 3236 3240 3237 3239 3241 3241 3243 3246 3249 3248 3246 3247 3248 3249 3250 3253 3256
3188 3189 3191 3193 3195 3197 3197 3199 3198 3199 3200 3201 3203 3205 3207 3208 3210 3210 3211 3209 3212 3214 3218 3220 3223 3226 3229 3231 3232 3233 3234 3236 3238 3240 3238 3239 3239 3240 3243 3246 3247 3246 3247 3249 3250 3251 3253 3254 3256
3188 3187 3186 3191 3195 3196 3195 3199 3199 3200 3202 3204 3206 3207 3208 3210 3211 3211 3209 3210 3210 3213 3216 3220 3224 3227 3230 3232 3233 3234 3235 3236 3237 3239 3239 3240 3240 3241 3243 3246 3247 3245 3246 3249 3249 3250 3251 3253 3254
3186 3184 3182 3190 3194 3196 3195 3198 3199 3201 3203 3206 3207 3208 3210 3212 3212 3212 3211 3211 3211 3214 3216 3220 3223 3227 3230 3232 3234 3235 3236 3237 3239 3238 3240 3239 3240 3241 3242 3243 3243 3244 3246 3247 3247 3247 3247 3249 3251
3182 3184 3185 3187 3192 3194 3194 3195 3198 3201 3204 3206 3208 3209 3212 3214 3213 3214 3215 3215 3213 3215 3218 3220 3223 3227 3230 3232 3233 3234 3235 3236 3238 3239 3240 3238 3239 3239 3240 3241 3243 3244 3245 3246 3243 3246 3247 3248 3249
3186 3187 3186 3187 3190 3190 3190 3193 3196 3200 3203 3205 3207 3209 3212 3214 3215 3215 3217 3216 3215 3217 3219 3221 3224 3227 3229 3231 3232 3234 3236 3237 3238 3237 3239 3238 3239 3239 3239 3240 3241 3242 3243 3242 3245 3246 3246 3247 3247
3187 3187 3187 3189 3187 3187 3186 3191 3194 3199 3203 3205 3208 3209 3211 3213 3215 3215 3217 3218 3218 3218 3219 3221 3223 3226 3228 3229 3230 3232 3234 3233 3235 3234 3235 3236 3237 3237 3238 3239 3239 3239 3240 3242 3242 3243 3244 3244 3245
3185 3184 3187 3185 3187 3185 3169 3192 3193 3196 3202 3205 3207 3209 3210 3212 3213 3214 3217 3219 3221 3219 3220 3221 3223 3225 3226 3227 3228 3229 3230 3231 3232 3233 3233 3233 3233 3233 3235 3235 3236 3237 3238 3239 3239 3241 3241 3241 3241
3180 3182 3185 3184 3184 3184 3188 3190 3182 3191 3198 3203 3206 3207 3209 3211 3214 3215 3216 3218 3220 3221 3220 3220 3221 3222 3223 3225 3226 3227 3228 3228 3228 3228 3227 3230 3229 3230 3231 3232 3232 3233 3234 3234 3235 3236 3236 3237 3238
3184 3184 3185 3184 3180 3185 3183 3184 3175 3173 3194 3200 3204 3206 3208 3210 3213 3213 3215 3215 3218 3219 3220 3219 3219 3221 3222 3223 3224 3224 3225 3225 3223 3221 3222 3222 3226 3227 3228 3228 3229 3229 3230 3230 3230 3231 3231 3232 3232
3183 3185 3185 3184 3181 3177 3173 3179 3184 3186 3191 3197 3202 3203 3205 3208 3211 3214 3215 3215 3216 3215 3218 3216 3216 3218 3218 3219 3220 3221 3221 3221 3220 3219 3220 3219 3223 3225 3223 3225 3225 3225 3225 3225 3226 3226 3226 3227 3227
3184 3183 3180 3180 3176 3173 3171 3178 3183 3189 3192 3196 3200 3200 3200 3203 3208 3211 3211 3212 3211 3213 3213 3215 3209 3214 3214 3215 3217 3218 3220 3221 3220 3217 3217 3219 3220 3221 3222 3221 3222 3222 3222 3222 3222 3222 3221 3221 3221
3182 3179 3174 3170 3164 3164 3172 3176 3179 3184 3186 3189 3193 3198 3200 3200 3205 3207 3207 3210 3207 3206 3208 3209 3209 3211 3212 3214 3215 3215 3217 3217 3217 3217 3216 3216 3217 3216 3218 3218 3218 3218 3218 3217 3218 3217 3216 3215 3215
3177 3177 3176 3171 3167 3167 3165 3175 3178 3180 3183 3186 3191 3194 3199 3198 3201 3199 3194 3196 3197 3200 3203 3206 3208 3208 3210 3212 3212 3215 3214 3214 3214 3214 3213 3214 3214 3214 3214 3214 3214 3213 3213 3212 3213 3212 3211 3210 3209
3175 3176 3176 3175 3172 3169 3166 3166 3167 3177 3180 3182 3189 3190 3187 3188 3190 3190 3190 3191 3193 3197 3200 3202 3203 3204 3206 3206 3204 3208 3212 3210 3210 3210 3210 3210 3210 3211 3210 3210 3210 3209 3208 3208 3207 3207 3206 3204 3204
3172 3173 3173 3170 3167 3162 3161 3165 3171 3174 3176 3176 3179 3183 3182 3183 3184 3186 3187 3188 3192 3193 3196 3197 3199 3200 3200 3200 3201 3206 3208 3209 3209 3208 3208 3206 3208 3207 3205 3204 3204 3203 3203 3202 3201 3200 3200 3198 3197
3166 3166 3168 3167 3168 3167 3166 3168 3173 3174 3172 3172 3175 3179 3180 3182 3182 3183 3184 3186 3187 3190 3191 3193 3195 3195 3196 3197 3198 3201 3203 3203 3204 3205 3204 3203 3203 3201 3200 3198 3197 3195 3194 3193 3192 3192 3191 3190 3189